AAL274 KLAX-KJFK

Flight info

Callsign AAL274
Flight time N/A
Altitude 39000
Route OSHNN1 BEALE J146 DVC KD60A KP66G IOW POSTS DAFLU J70 JHW Q476 WLKES PUCKY1
Aircraft B772/H-SDE1E3FGHIJ3J5M1P2RWXYZ/LB1D1

Departure

Time N/A
Airport Los Angeles International Airport (KLAX)

Arrival

Time 2026-05-05 00:24
Airport John F. Kennedy International Airport (KJFK)
Time Latitude Longitude Altitude Speed Heading
2026-05-05 00:17 40.81650 -73.51678 4237 ft 253 kts 290°
2026-05-05 00:17 40.81971 -73.53877 3890 ft 245 kts 264°
2026-05-05 00:17 40.81634 -73.56040 3776 ft 233 kts 253°
2026-05-05 00:18 40.81173 -73.58001 3716 ft 221 kts 251°
2026-05-05 00:18 40.80690 -73.59885 3628 ft 212 kts 250°
2026-05-05 00:18 40.80220 -73.61678 3542 ft 203 kts 250°
2026-05-05 00:18 40.79664 -73.63368 3398 ft 197 kts 232°
2026-05-05 00:19 40.78628 -73.64540 3150 ft 198 kts 215°
2026-05-05 00:19 40.77449 -73.65448 2906 ft 198 kts 212°
2026-05-05 00:19 40.76257 -73.66348 2659 ft 198 kts 212°
2026-05-05 00:19 40.75074 -73.67263 2426 ft 187 kts 212°
2026-05-05 00:20 40.74052 -73.68056 2205 ft 157 kts 213°
2026-05-05 00:20 40.73172 -73.68742 2025 ft 140 kts 213°
2026-05-05 00:20 40.72396 -73.69348 1847 ft 116 kts 213°
2026-05-05 00:20 40.71724 -73.69874 1711 ft 111 kts 213°
2026-05-05 00:21 40.71068 -73.70387 1567 ft 109 kts 212°
2026-05-05 00:21 40.70409 -73.70902 1412 ft 110 kts 212°
2026-05-05 00:21 40.69749 -73.71417 1262 ft 110 kts 212°
2026-05-05 00:21 40.69096 -73.71927 1114 ft 109 kts 211°
2026-05-05 00:22 40.68433 -73.72444 963 ft 111 kts 211°
2026-05-05 00:22 40.67770 -73.72961 800 ft 110 kts 210°
2026-05-05 00:22 40.67111 -73.73476 647 ft 110 kts 210°
2026-05-05 00:22 40.66442 -73.74004 506 ft 110 kts 209°
2026-05-05 00:23 40.65782 -73.74517 374 ft 110 kts 208°
2026-05-05 00:23 40.65110 -73.75036 204 ft 112 kts 208°
2026-05-05 00:23 40.64439 -73.75566 53 ft 110 kts 208°
2026-05-05 00:23 40.63834 -73.76044 29 ft 91 kts 204°
2026-05-05 00:24 40.63405 -73.76357 28 ft 53 kts 209°
2026-05-05 00:24 40.63152 -73.76552 28 ft 36 kts 217°
2026-05-05 00:24 40.63005 -73.76732 29 ft 13 kts 233°
2026-05-05 00:24 40.62954 -73.76837 28 ft 14 kts 241°
2026-05-05 00:25 40.62922 -73.76958 28 ft 12 kts 282°
2026-05-05 00:25 40.62964 -73.77058 28 ft 13 kts 303°
2026-05-05 00:25 40.63024 -73.77188 28 ft 19 kts 301°
2026-05-05 00:25 40.63099 -73.77348 29 ft 20 kts 301°
2026-05-05 00:26 40.63175 -73.77512 28 ft 20 kts 301°
2026-05-05 00:26 40.63249 -73.77676 28 ft 21 kts 300°
2026-05-05 00:26 40.63324 -73.77843 28 ft 21 kts 300°
2026-05-05 00:26 40.63389 -73.77989 28 ft 15 kts 299°
2026-05-05 00:27 40.63415 -73.78050 28 ft 0 kts 298°
2026-05-05 00:27 40.63430 -73.78085 28 ft 12 kts 300°
2026-05-05 00:27 40.63492 -73.78227 28 ft 20 kts 300°
2026-05-05 00:27 40.63567 -73.78390 28 ft 20 kts 301°
2026-05-05 00:28 40.63642 -73.78552 28 ft 21 kts 301°
2026-05-05 00:28 40.63718 -73.78718 28 ft 21 kts 300°
2026-05-05 00:28 40.63791 -73.78883 28 ft 20 kts 300°
2026-05-05 00:28 40.63866 -73.79049 28 ft 21 kts 300°
2026-05-05 00:29 40.63942 -73.79215 28 ft 21 kts 302°
2026-05-05 00:29 40.64019 -73.79382 28 ft 21 kts 301°
2026-05-05 00:29 40.64080 -73.79483 28 ft 12 kts 332°
2026-05-05 00:29 40.64169 -73.79483 28 ft 14 kts 30°
2026-05-05 00:30 40.64235 -73.79481 28 ft 10 kts 350°
2026-05-05 00:30 40.64315 -73.79492 28 ft 12 kts
2026-05-05 00:30 40.64410 -73.79492 28 ft 14 kts 355°
2026-05-05 00:30 40.64518 -73.79504 28 ft 16 kts 355°
2026-05-05 00:31 40.64618 -73.79541 28 ft 15 kts 322°
2026-05-05 00:31 40.64708 -73.79628 28 ft 16 kts 324°
2026-05-05 00:31 40.64815 -73.79694 28 ft 17 kts 343°
2026-05-05 00:31 40.64928 -73.79703 28 ft 15 kts
2026-05-05 00:32 40.65028 -73.79686 28 ft 11 kts 39°
2026-05-05 00:32 40.65037 -73.79612 28 ft 8 kts 109°
2026-05-05 00:32 40.65028 -73.79597 29 ft 0 kts 134°
2026-05-05 00:32 40.65000 -73.79563 28 ft 7 kts 137°
2026-05-05 00:33 40.64976 -73.79535 28 ft 2 kts 137°
2026-05-05 00:33 40.64970 -73.79527 28 ft 0 kts 137°